Observations for Trim Patrick St
| Time | AQI | Temp °C | Hum % | Pres Pa | CO μg/m³ | H₂S μg/m³ | NO μg/m³ | NO₂ μg/m³ | O₃ μg/m³ | SO₂ μg/m³ | PM1 μg/m³ | PM2.5 μg/m³ | PM10 μg/m³ |
|---|---|---|---|---|---|---|---|---|---|---|---|---|---|
| Thursday 27 August 2026 | |||||||||||||
| 23:17 | 3 | 17.7 | 87 | 38,460 | 0.12 | 1.74 | 0.94 | 12.76 | 42.53 | 0 | 15.71 | 22.61 | 24.87 |
| 23:16 | 3 | 17.7 | 87 | 38,460 | 0.11 | 2.21 | 0.93 | 13.45 | 38.83 | 0 | 18.29 | 26.03 | 28.64 |
| 23:15 | 3 | 17.7 | 87 | 38,460 | 0.11 | 0.88 | 0.98 | 12.42 | 37.41 | 0 | 18.29 | 28.09 | 30.9 |
| 23:14 | 3 | 17.7 | 87 | 38,460 | 0.12 | 1.38 | 0.87 | 12.07 | 39.46 | 0 | 17.43 | 26.03 | 28.64 |
| 23:13 | 3 | 17.7 | 87 | 38,460 | 0.13 | 2.48 | 0.87 | 13.79 | 40.5 | 0 | 16.57 | 26.02 | 28.62 |
| 23:12 | 3 | 17.7 | 87 | 38,460 | 0.12 | 2.4 | 0.8 | 13.14 | 36.57 | 0 | 14.86 | 25.35 | 27.88 |
| 23:11 | 3 | 17.7 | 87 | 38,460 | 0.12 | 2.21 | 0.85 | 13.35 | 40.52 | 0 | 19.14 | 26.72 | 28.62 |
| 23:10 | 3 | 17.7 | 87 | 38,460 | 0.12 | 2.27 | 0.94 | 12.85 | 35.48 | 0 | 20 | 27.41 | 30.15 |
| 23:09 | 3 | 17.7 | 87 | 38,460 | 0.14 | 2.58 | 1.23 | 13.24 | 35.46 | 0 | 18.29 | 24.66 | 27.13 |
| 23:08 | 3 | 17.7 | 87 | 38,460 | 0.15 | 2.92 | 1.29 | 14.41 | 43.87 | 0 | 18.29 | 28.09 | 30.9 |
| 23:07 | 3 | 17.7 | 87 | 38,460 | 0.13 | 2.58 | 1.17 | 13.12 | 37.9 | 0 | 18.29 | 26.05 | 28.65 |
| 23:06 | 3 | 17.7 | 87 | 38,460 | 0.12 | 2.66 | 1.4 | 13.65 | 33.41 | 0 | 18.29 | 28.79 | 31.67 |
| 23:05 | 3 | 17.7 | 87 | 38,460 | 0.12 | 2.29 | 1.49 | 13.65 | 36.57 | 0 | 20.86 | 28.1 | 30.92 |
| 23:04 | 3 | 17.7 | 87 | 38,460 | 0.13 | 1.87 | 1.11 | 12.82 | 37.41 | 0 | 19.14 | 26.06 | 28.67 |
| 23:03 | 3 | 17.8 | 87 | 38,460 | 0.12 | 2.95 | 1.01 | 13.63 | 35.7 | 0.3 | 20 | 27.43 | 30.18 |
| 23:02 | 3 | 17.7 | 87 | 38,460 | 0.12 | 2.4 | 1.11 | 12.64 | 39.28 | 0 | 18.29 | 26.75 | 29.42 |
| 23:01 | 3 | 17.7 | 87 | 38,460 | 0.13 | 2.45 | 0.99 | 13.31 | 34.03 | 0 | 19.14 | 27.43 | 30.18 |
| 23:00 | 3 | 17.7 | 87 | 38,460 | 0.13 | 2.29 | 0.86 | 12.72 | 37.36 | 0 | 20 | 29.49 | 32.44 |
| 22:59 | 3 | 17.7 | 87 | 38,460 | 0.12 | 2.5 | 1.02 | 13.52 | 34.31 | 0 | 20 | 26.75 | 29.42 |
| 22:58 | 3 | 17.7 | 87 | 38,460 | 0.14 | 2.37 | 0.89 | 12.91 | 36.93 | 0 | 18.29 | 26.75 | 29.42 |